SM2GSR-2 Weather Reports


Display with metric or nautical units.
time (UTC)temp
F
wind
direction
speed
MPH
gust
MPH
rain 1hr
in
rain 24hr
in
rain mn
in
humidity
%
barometer
mb
20260906023004 38 69 0.0 0.0 0.00 0.00 0.00 90 1002.9
20260906022504 38 69 0.0 0.0 0.00 0.00 0.00 90 1002.8
20260906022004 38 69 0.0 0.0 0.00 0.00 0.00 90 1002.9
20260906021504 39 69 0.0 0.0 0.00 0.00 0.00 90 1002.9
20260906020504 39 69 0.0 0.0 0.00 0.00 0.00 90 1002.9
20260906020004 39 69 0.0 0.0 0.00 0.00 0.00 90 1002.5
20260906015504 40 69 0.0 0.0 0.00 0.00 0.00 90 1002.5
20260906015004 40 69 0.0 0.0 0.00 0.00 0.00 90 1002.4
20260906014504 40 69 0.0 0.0 0.00 0.00 0.00 90 1002.5
20260906014004 40 69 0.0 0.0 0.00 0.00 0.00 90 1002.5
20260906013504 40 69 0.0 0.0 0.00 0.00 0.00 90 1002.5
20260906013004 41 69 0.0 0.0 0.00 0.00 0.00 90 1002.4
20260906012004 41 69 0.0 0.0 0.00 0.00 0.00 90 1002.3
20260906011504 41 69 0.0 0.0 0.00 0.00 0.00 90 1002.3
20260906011004 41 69 0.0 0.0 0.00 0.00 0.00 90 1002.3
20260906010504 41 69 0.0 0.0 0.00 0.00 0.00 90 1002.3
20260906010004 41 69 0.0 0.0 0.00 0.00 0.00 90 1002.2
20260906005503 41 69 0.0 0.0 0.00 0.00 0.00 90 1002.2
20260906005004 41 69 0.0 0.0 0.00 0.00 0.00 90 1002.2
20260906004504 41 69 0.0 0.0 0.00 0.00 0.00 90 1002.1
20260906003504 41 69 0.0 0.0 0.00 0.00 0.00 90 1002.0
20260906003004 41 69 0.0 0.0 0.00 0.00 0.00 90 1002.0
20260906002503 41 69 0.0 0.0 0.00 0.00 0.00 90 1002.0
20260906001503 41 69 0.0 0.0 0.00 0.00 0.00 89 1001.9
20260906001003 41 69 0.0 0.0 0.00 0.00 0.00 89 1001.7
20260906000504 41 69 0.0 0.0 0.00 0.00 0.00 89 1001.6
20260906000003 42 69 0.0 0.0 0.00 0.00 0.00 89 1001.5
20260905235503 42 69 0.0 0.0 0.00 0.00 0.00 88 1001.5
20260905235004 42 69 0.0 0.0 0.00 0.00 0.00 88 1001.4
20260905234004 43 69 0.0 0.0 0.00 0.00 0.00 87 1001.3
20260905233504 43 69 0.0 0.0 0.00 0.00 0.00 86 1001.3
20260905233004 43 69 1.0 3.0 0.00 0.00 0.00 86 1001.2
20260905232505 43 69 0.0 0.0 0.00 0.00 0.00 86 1001.2
20260905232004 43 69 0.0 1.0 0.00 0.00 0.00 87 1001.1
20260905231004 44 76 0.0 0.0 0.00 0.00 0.00 89 1001.1
20260905230504 44 75 0.0 0.0 0.00 0.00 0.00 90 1001.1
20260905230004 44 75 0.0 3.0 0.00 0.00 0.00 90 1001.0
20260905225503 44 71 0.0 0.0 0.00 0.00 0.00 89 1000.9
20260905225003 44 76 0.0 0.0 0.00 0.00 0.00 87 1000.9
20260905224503 44 78 0.0 0.0 0.00 0.00 0.00 86 1000.8
20260905224004 44 96 0.0 0.0 0.00 0.00 0.00 85 1000.6
20260905223504 44 51 0.0 1.0 0.00 0.00 0.00 85 1000.5
20260905223003 44 49 0.0 0.0 0.00 0.00 0.00 85 1000.6
20260905222504 44 49 0.0 0.0 0.00 0.00 0.00 85 1000.5
20260905222004 44 49 0.0 0.0 0.00 0.00 0.00 85 1000.4
20260905221504 44 49 0.0 0.0 0.00 0.00 0.00 85 1000.4
20260905221004 44 49 0.0 0.0 0.00 0.00 0.00 85 1000.3
20260905220504 43 49 0.0 0.0 0.00 0.00 0.00 85 1000.3
20260905220003 44 49 0.0 0.0 0.00 0.00 0.00 85 1000.3
20260905215504 43 49 0.0 0.0 0.00 0.00 0.00 85 1000.3
20260905215004 43 49 0.0 0.0 0.00 0.00 0.00 85 1000.1
20260905214504 43 49 0.0 0.0 0.00 0.00 0.00 85 1000.0
20260905214004 43 49 0.0 0.0 0.00 0.00 0.00 85 1000.0
20260905213504 43 49 0.0 0.0 0.00 0.00 0.00 85 1000.0
20260905213004 43 49 0.0 0.0 0.00 0.00 0.00 85 1000.0
20260905212003 43 49 0.0 0.0 0.00 0.00 0.00 85 999.8
20260905211503 43 49 0.0 0.0 0.00 0.00 0.00 85 999.7
20260905211004 43 49 0.0 0.0 0.00 0.00 0.00 85 999.8
20260905210504 43 49 0.0 0.0 0.00 0.00 0.00 85 999.6
20260905210003 43 49 0.0 0.0 0.00 0.00 0.00 85 999.6
20260905205503 42 49 0.0 0.0 0.00 0.00 0.00 86 999.5
20260905205004 42 49 0.0 0.0 0.00 0.00 0.00 85 999.6
20260905203004 41 49 0.0 0.0 0.00 0.00 0.00 87 999.4
20260905202504 41 49 0.0 0.0 0.00 0.00 0.00 88 999.2
20260905202004 41 49 0.0 0.0 0.00 0.00 0.00 88 999.2
20260905201504 41 49 0.0 0.0 0.00 0.00 0.00 88 999.1
20260905201004 41 49 0.0 0.0 0.00 0.00 0.00 88 999.0
20260905200504 41 49 0.0 0.0 0.00 0.00 0.00 89 999.0
20260905200004 40 49 0.0 0.0 0.00 0.00 0.00 89 998.9
20260905195504 40 49 0.0 0.0 0.00 0.00 0.00 89 998.9
20260905195004 40 49 0.0 0.0 0.00 0.00 0.00 89 998.9
20260905194504 40 49 0.0 0.0 0.00 0.00 0.00 90 998.8
20260905193004 41 49 0.0 0.0 0.00 0.00 0.00 90 998.7
20260905192504 41 49 0.0 0.0 0.00 0.00 0.00 90 998.6
20260905192004 41 49 0.0 0.0 0.00 0.00 0.00 90 998.6
20260905191504 41 49 0.0 0.0 0.00 0.00 0.00 89 998.5
20260905191004 41 49 0.0 0.0 0.00 0.00 0.00 90 998.4
20260905190504 42 49 0.0 0.0 0.00 0.00 0.00 89 998.4
20260905190004 42 49 0.0 0.0 0.00 0.00 0.00 89 998.3
20260905185503 42 49 0.0 0.0 0.00 0.00 0.00 89 998.3
20260905185004 43 49 0.0 0.0 0.00 0.00 0.00 89 998.2
20260905184504 43 49 0.0 0.0 0.00 0.00 0.00 88 998.1
20260905184004 44 49 0.0 0.0 0.00 0.00 0.00 88 998.2
20260905183003 45 49 0.0 0.0 0.00 0.00 0.00 91 998.1
20260905182503 45 49 0.0 0.0 0.00 0.00 0.00 87 998.0
20260905182004 46 49 0.0 0.0 0.00 0.00 0.00 87 997.9
20260905181504 46 49 0.0 0.0 0.00 0.00 0.00 87 997.8
20260905181003 47 49 0.0 0.0 0.00 0.00 0.00 86 997.8
20260905180504 47 49 0.0 0.0 0.00 0.00 0.00 86 997.7
20260905180003 48 49 0.0 0.0 0.00 0.00 0.00 85 997.8
20260905175004 49 49 0.0 0.0 0.00 0.00 0.00 84 997.6
20260905173504 51 49 0.0 0.0 0.00 0.00 0.00 83 997.4
20260905173004 51 49 0.0 0.0 0.00 0.00 0.00 81 997.4
20260905172504 51 49 0.0 0.0 0.00 0.00 0.00 80 997.4
20260905172003 52 49 0.0 0.0 0.00 0.00 0.00 81 997.3
20260905171504 52 49 0.0 0.0 0.00 0.00 0.00 80 997.3
20260905171004 53 49 0.0 0.0 0.00 0.00 0.00 79 997.3
20260905170503 53 49 0.0 0.0 0.00 0.00 0.00 74 997.2
20260905170005 53 49 0.0 0.0 0.00 0.00 0.00 72 997.1
20260905165004 53 49 0.0 0.0 0.00 0.00 0.00 71 996.9
20260905163504 53 55 2.0 6.0 0.00 0.00 0.00 71 996.6
20260905163004 52 36 1.0 5.0 0.00 0.00 0.00 74 996.5
20260905162503 51 314 0.0 5.0 0.00 0.00 0.00 79 996.4
20260905162003 52 301 0.0 0.0 0.00 0.00 0.00 80 996.4
20260905161503 52 301 0.0 0.0 0.00 0.00 0.00 77 996.4
20260905161004 53 301 0.0 0.0 0.00 0.00 0.00 76 996.4
20260905160504 53 301 0.0 0.0 0.00 0.00 0.00 74 996.4
20260905160004 54 301 0.0 0.0 0.00 0.00 0.00 73 996.4
20260905155504 54 301 0.0 1.0 0.00 0.00 0.00 72 996.3
20260905155004 54 301 0.0 3.0 0.00 0.00 0.00 72 996.3
20260905154505 54 300 2.0 3.0 0.00 0.00 0.00 73 996.3
20260905154003 54 335 0.0 3.0 0.00 0.00 0.00 74 996.3
20260905153504 54 328 1.0 3.0 0.00 0.00 0.00 75 996.2
20260905152504 54 324 0.0 1.0 0.00 0.00 0.00 77 996.1
20260905152004 54 325 0.0 0.0 0.00 0.00 0.00 76 996.1
20260905151004 54 325 0.0 0.0 0.00 0.00 0.00 72 996.1
20260905150504 55 325 0.0 3.0 0.00 0.00 0.00 69 996.0
20260905150004 55 328 0.0 0.0 0.00 0.00 0.00 70 996.0
20260905145504 55 328 0.0 0.0 0.00 0.01 0.00 74 996.0
20260905144504 54 328 0.0 3.0 0.00 0.02 0.00 72 995.9
20260905144003 54 331 1.0 3.0 0.00 0.02 0.00 68 995.8
20260905143504 54 342 0.0 2.0 0.00 0.02 0.00 67 995.8
20260905143004 54 333 1.0 3.0 0.00 0.02 0.00 68 995.8
20260905142504 54 329 2.0 6.0 0.00 0.02 0.00 67 995.8
20260905142004 54 342 2.0 10.0 0.00 0.02 0.00 66 995.7
20260905141504 55 354 3.0 7.0 0.00 0.02 0.00 65 995.7
20260905141004 55 332 0.0 3.0 0.00 0.02 0.00 64 995.7
20260905140504 56 19 3.0 7.0 0.00 0.02 0.00 62 995.6
20260905135503 58 333 5.0 9.0 0.00 0.02 0.00 61 995.4
20260905135004 58 348 2.0 8.0 0.00 0.02 0.00 63 995.4
20260905134503 58 305 2.0 6.0 0.00 0.03 0.00 64 995.2
20260905134004 57 300 2.0 3.0 0.00 0.03 0.00 71 995.2
20260905133503 55 312 0.0 3.0 0.00 0.03 0.00 75 995.3
20260905133004 55 311 0.0 0.0 0.00 0.03 0.00 71 995.2
20260905132503 55 311 0.0 0.0 0.00 0.03 0.00 70 995.2
20260905132003 55 311 2.0 3.0 0.00 0.03 0.00 68 995.2
20260905131004 56 328 0.0 0.0 0.00 0.03 0.00 68 995.1
20260905130504 56 341 0.0 2.0 0.00 0.03 0.00 68 995.1
20260905130004 56 8 0.0 2.0 0.00 0.03 0.00 72 995.1
20260905125504 55 24 0.0 0.0 0.00 0.03 0.00 70 995.1
20260905125004 55 24 0.0 2.0 0.00 0.03 0.00 67 995.1
20260905124504 56 329 0.0 1.0 0.00 0.03 0.00 66 995.0
20260905124004 57 329 1.0 3.0 0.00 0.03 0.00 64 995.0
20260905123504 58 17 1.0 5.0 0.00 0.04 0.00 62 995.0
20260905123005 58 38 2.0 6.0 0.00 0.04 0.00 64 995.0
20260905122504 58 322 0.0 3.0 0.00 0.05 0.00 64 994.8
20260905122003 57 316 2.0 5.0 0.00 0.07 0.00 71 994.8
20260905121504 57 303 1.0 5.0 0.00 0.08 0.00 69 994.8
20260905121004 56 331 1.0 6.0 0.00 0.08 0.00 67 994.9
20260905120504 56 302 2.0 3.0 0.00 0.08 0.00 70 994.8
20260905120004 56 9 0.0 3.0 0.00 0.08 0.00 65 994.8
20260905115503 57 27 2.0 5.0 0.00 0.08 0.00 66 994.8
20260905115004 57 284 0.0 6.0 0.00 0.08 0.00 68 994.8
20260905114504 56 298 0.0 3.0 0.00 0.08 0.00 69 994.8
20260905114004 56 298 1.0 3.0 0.00 0.08 0.00 70 994.8
20260905113003 55 328 3.0 6.0 0.00 0.08 0.00 71 994.7
20260905112503 55 348 3.0 8.0 0.00 0.09 0.00 68 994.7
20260905111504 55 344 0.0 3.0 0.00 0.13 0.00 71 994.7
20260905111004 54 344 0.0 1.0 0.00 0.18 0.00 72 994.7
20260905110504 54 350 1.0 3.0 0.00 0.20 0.00 72 994.6
20260905110004 55 328 0.0 6.0 0.00 0.20 0.00 70 994.6
20260905105504 55 303 2.0 5.0 0.00 0.20 0.00 71 994.5
20260905104004 55 16 0.0 5.0 0.00 0.20 0.00 76 994.5
20260905103004 53 304 0.0 5.0 0.00 0.20 0.00 77 994.4
20260905102504 54 343 1.0 8.0 0.00 0.20 0.00 74 994.4
20260905102004 55 70 1.0 3.0 0.00 0.20 0.00 70 994.4
20260905101504 55 76 3.0 7.0 0.00 0.20 0.00 72 994.4
20260905101004 55 66 3.0 8.0 0.00 0.20 0.00 75 994.3
20260905095504 54 17 2.0 6.0 0.00 0.20 0.00 73 994.3
20260905095004 54 356 3.0 7.0 0.00 0.20 0.00 75 994.3
20260905094504 54 81 2.0 3.0 0.00 0.20 0.00 78 994.3
20260905094004 53 65 2.0 5.0 0.00 0.20 0.00 80 994.2
20260905093504 52 53 3.0 6.0 0.00 0.20 0.00 77 994.2
20260905093004 52 74 2.0 6.0 0.00 0.20 0.00 78 994.2
20260905092010 52 0 1.0 5.0 0.00 0.20 0.00 79 994.1
20260905091504 51 68 3.0 5.0 0.00 0.20 0.00 80 994.1
20260905091004 51 63 3.0 6.0 0.00 0.20 0.00 80 994.1
20260905090504 51 23 2.0 3.0 0.00 0.20 0.00 80 994.1
20260905085504 51 339 2.0 5.0 0.00 0.20 0.00 80 994.1
20260905085003 51 335 3.0 7.0 0.00 0.20 0.00 80 994.1
20260905084504 51 2 1.0 6.0 0.00 0.20 0.00 81 994.1
20260905084003 51 357 2.0 6.0 0.00 0.20 0.00 84 994.0
20260905083503 50 66 2.0 6.0 0.00 0.20 0.00 84 994.0
20260905082503 50 7 1.0 3.0 0.00 0.20 0.00 86 994.0
20260905082004 50 329 0.0 3.0 0.00 0.20 0.00 85 994.0
20260905081504 50 337 2.0 5.0 0.00 0.20 0.00 86 994.0
20260905080504 50 7 1.0 5.0 0.00 0.20 0.00 87 994.0
20260905080004 49 329 3.0 7.0 0.00 0.20 0.00 87 993.9
20260905075504 50 15 2.0 7.0 0.00 0.20 0.00 88 993.9
20260905074504 50 24 1.0 3.0 0.00 0.20 0.00 89 993.9
20260905074003 50 359 1.0 5.0 0.00 0.20 0.00 88 993.8
20260905073504 50 355 1.0 5.0 0.00 0.20 0.00 88 993.7
20260905073003 49 340 2.0 6.0 0.00 0.20 0.00 88 993.8
20260905072004 49 40 2.0 3.0 0.00 0.20 0.00 88 993.7
20260905071003 49 328 2.0 5.0 0.00 0.20 0.00 88 993.6
20260905070004 49 338 1.0 3.0 0.00 0.20 0.00 89 993.6
20260905065004 49 329 1.0 8.0 0.00 0.20 0.00 88 993.5
20260905064504 49 41 3.0 9.0 0.00 0.20 0.00 89 993.4
20260905064003 49 344 1.0 5.0 0.00 0.20 0.00 89 993.4
20260905063004 49 61 0.0 0.0 0.00 0.20 0.00 89 993.4
20260905062503 49 61 1.0 3.0 0.00 0.20 0.00 89 993.4
20260905062004 49 27 0.0 2.0 0.00 0.20 0.00 89 993.3
20260905061504 49 29 0.0 3.0 0.00 0.20 0.00 90 993.3
20260905061004 49 26 0.0 0.0 0.00 0.20 0.00 90 993.3
20260905060506 49 348 1.0 3.0 0.00 0.20 0.00 90 993.1
20260905060003 49 354 1.0 9.0 0.00 0.20 0.00 90 993.2
20260905055506 49 333 0.0 9.0 0.00 0.20 0.00 90 993.2
20260905055004 49 9 1.0 3.0 0.00 0.20 0.00 90 993.1
20260905054504 49 27 1.0 3.0 0.00 0.20 0.00 90 993.1
20260905054004 49 7 0.0 3.0 0.00 0.20 0.00 89 993.1
20260905053504 49 347 1.0 3.0 0.00 0.20 0.00 89 993.0
20260905053004 49 348 0.0 0.0 0.00 0.20 0.00 89 993.0
20260905052503 49 348 0.0 3.0 0.00 0.20 0.00 89 993.0
20260905051503 49 348 0.0 3.0 0.00 0.20 0.00 89 993.0
20260905051004 49 348 0.0 3.0 0.00 0.20 0.00 89 993.0
20260905050504 49 355 2.0 3.0 0.00 0.20 0.00 89 992.9
20260905050004 49 352 1.0 3.0 0.00 0.20 0.00 89 992.9
20260905045004 49 327 1.0 3.0 0.00 0.20 0.00 90 992.9
20260905044504 49 321 0.0 3.0 0.00 0.20 0.00 90 992.9
20260905044004 49 322 2.0 5.0 0.00 0.20 0.00 90 992.9
20260905043504 49 336 2.0 5.0 0.00 0.20 0.00 90 992.8
20260905043004 49 344 2.0 5.0 0.00 0.20 0.00 90 992.8
20260905042004 49 351 0.0 0.0 0.00 0.20 0.00 90 992.7
20260905041504 49 351 0.0 0.0 0.00 0.20 0.00 90 992.7
20260905041005 49 351 0.0 0.0 0.00 0.20 0.00 90 992.7
20260905040504 49 351 0.0 0.0 0.00 0.20 0.00 90 992.7
20260905040004 49 350 0.0 0.0 0.00 0.20 0.00 90 992.7
20260905035505 49 350 0.0 1.0 0.00 0.20 0.00 90 992.7
20260905034503 49 12 0.0 0.0 0.00 0.20 0.00 90 992.6
20260905033004 49 12 0.0 1.0 0.00 0.20 0.00 90 992.5
20260905032505 49 12 0.0 0.0 0.00 0.20 0.00 90 992.5
20260905032004 49 12 0.0 5.0 0.00 0.20 0.00 90 992.5
20260905031004 49 32 0.0 0.0 0.00 0.20 0.00 90 992.4
20260905030003 50 32 0.0 0.0 0.00 0.20 0.00 90 992.5
20260905025504 50 32 0.0 0.0 0.00 0.20 0.00 90 992.4
20260905025004 50 32 0.0 0.0 0.00 0.20 0.00 90 992.4
20260905024004 50 34 0.0 0.0 0.00 0.20 0.00 90 992.5
20260905023504 50 34 0.0 0.0 0.00 0.20 0.00 90 992.4